This is the latest recevied weather packets stored in our database for station/object IQ5KG. If no packets are shown the sender has not sent any weather packets the latest 10 day(s).
| Time | Temp. | Humidity | Pressure | Rain* | Wind** | Luminosity | Snow |
|---|---|---|---|---|---|---|---|
| 1777575682 | 14.44° C | 36% | 1021.6 hPa | 0 mm | - | - | - |
| 1777574818 | 15° C | 36% | 1021.2 hPa | 0 mm | - | - | - |
| 1777573917 | 15° C | 36% | 1021.1 hPa | 0 mm | - | - | - |
| 1777573019 | 15.56° C | 35% | 1020.7 hPa | 0 mm | - | - | - |
| 1777572118 | 16.11° C | 35% | 1020.5 hPa | 0 mm | - | - | - |
| 1777571218 | 16.67° C | 36% | 1020.5 hPa | 0 mm | - | - | - |
| 1777570317 | 17.22° C | 36% | 1020.1 hPa | 0 mm | - | - | - |
| 1777569418 | 17.78° C | 37% | 1020.1 hPa | 0 mm | - | - | - |
| 1777568518 | 17.78° C | 36% | 1019.9 hPa | 0 mm | - | - | - |
| 1777567618 | 18.33° C | 38% | 1020 hPa | 0 mm | - | - | - |
| 1777566718 | 18.33° C | 38% | 1019.9 hPa | 0 mm | - | - | - |
| 1777565818 | 18.89° C | 38% | 1019.6 hPa | 0 mm | - | - | - |
| 1777564916 | 18.89° C | 39% | 1019.4 hPa | 0 mm | - | - | - |
| 1777564017 | 19.44° C | 39% | 1019.5 hPa | 0 mm | - | - | - |
| 1777563117 | 19.44° C | 39% | 1019.6 hPa | 0 mm | - | - | - |
| 1777562217 | 19.44° C | 38% | 1019.7 hPa | 0 mm | - | - | - |
| 1777561317 | 20° C | 38% | 1019.4 hPa | 0 mm | - | - | - |
| 1777560416 | 19.44° C | 37% | 1019.6 hPa | 0 mm | - | - | - |
| 1777559516 | 19.44° C | 37% | 1019.7 hPa | 0 mm | - | - | - |
| 1777558616 | 19.44° C | 37% | 1019.7 hPa | 0 mm | - | - | - |
| 1777557717 | 20° C | 39% | 1019.9 hPa | 0 mm | - | - | - |
| 1777556817 | 20° C | 39% | 1019.9 hPa | 0 mm | - | - | - |
| 1777555917 | 20° C | 40% | 1020.2 hPa | 0 mm | - | - | - |
| 1777555015 | 20° C | 41% | 1020.2 hPa | 0 mm | - | - | - |
| 1777554116 | 20° C | 41% | 1020.1 hPa | 0 mm | - | - | - |
* Rain latest hour (hover to see other rain measurements)
** Current wind speed in m/s (hover to see current wind gust speed)